Location: G�yn�k
(36.6721°N, 30.5542°E)
Time: 21:48:11
(UTC+00:00)

BREEZE-M DEB (TANK) - Pass Details

Date: 09 October 2020
Orbit: 333 x 12040 km, 49.7° (Epoch: 26 October)

Event Time Altitude Azimuth Distance (km) Brightness Sun altitude
Rises 21:18:47 0° 134° (SE) 14,193 9.0 -59.4°
Reaches altitude 10° 21:43:44 10° 117° (ESE) 15,353 9.2 -60.0°
Maximum altitude 22:30:11 18° 89° (E) 15,065 9.3 -58.3°
Drops below altitude 10° 23:05:26 10° 63° (ENE) 13,129 9.4 -54.9°
Sets 23:19:32 0° 52° (NE) 12,247 9.5 -53.1°
